User: anonymous   Login
Location: Unspecified
(0.0000°N, 0.0000°E)
Time: 17:47:26
(UTC+00:00)
Language:

EGRS 3 - Orbit

View from above orbital plane
View from above orbital plane
View from above satellite
View from above satellite

Ground track
Ground track

The orbit data is extracted from the following two-line orbital elements,

1 01208U 65016E   18114.23959067 -.00000005  00000-0  34579-4 0  9993
2 01208  70.0815  38.8928 0018644  31.4563 120.3197 13.95558104704383
Epoch (UTC): 24 April 2018 05:45:00
Eccentricity: 0.0018644
inclination: 70.0815°
perigee height: 895 km
apogee height: 923 km
right ascension of ascending node: 38.8928°
argument of perigee: 31.4563°
revolutions per day: 13.95558104
mean anomaly at epoch: 120.3197°
orbit number at epoch: 70438

The dashed part of the orbit path shows where the satellite is in the earth's shadow,  

DLR